Superior, WI

6:56 AM CST on December 08, 2016 (GMT -0600)
Bong

Weather History for KSUW - September, 2013

Change the Weather History Date:

Friday, September 13, 2013

  Actual Average Record
Temperature  
Mean Temperature 50 °F -  
Max Temperature 66 °F 66 °F 86 °F (1969)
Min Temperature 33 °F 48 °F 19 °F (1963)
Degree Days  
Heating Degree Days 16    
Moisture  
Dew Point 43 °F    
Average Humidity 80    
Maximum Humidity 100    
Minimum Humidity 46    
Precipitation  
Precipitation 0.00 in - - ()
Sea Level Pressure  
Sea Level Pressure 30.20 in    
Wind  
Wind Speed 1 mph (SSW)    
Max Wind Speed 5 mph    
Max Gust Speed -    
Visibility 9 miles    
Events      
Averages and records for this station are not official NWS values.
T = Trace of Precipitation, MM = Missing Value Source: NWS Daily Summary

Daily Weather History Graph

Daily Weather History Graph

Search for Another Location

Airport or City:

Trip Planner

Search our weather history database for the weather conditions in past years. The results will help you decide how hot, cold, wet, or windy it might be!

Date:

Astronomy

Sep. 13, 2013 Rise Set
Actual Time 6:43 AM CDT 7:23 PM CDT
Civil Twilight 6:13 AM CDT 7:53 PM CDT
Nautical Twilight 5:37 AM CDT 8:30 PM CDT
Astronomical Twilight 4:59 AM CDT 9:07 PM CDT
Moon 3:29 PM CDT (9/13) No Moon Set
Length of Visible Light 13h 40m
Length of Day
12h 39m
First Quarter, 61% of the Moon is Illuminated
Sep 13
First Quarter
Sep 19
Full
Sep 26
Last Quarter
Oct 4
New
Oct 11
First Quarter

Hourly Weather History & Observations

Time (CDT) Temp. Windchill Dew Point Humidity Pressure Visibility Wind Dir Wind Speed Gust Speed Precip Events Conditions
12:15 AM 40.1 °F - 40.1 °F 100% 30.25 in 0.8 mi Calm Calm - N/A   Mist
12:35 AM 39.4 °F - 39.4 °F 100% 30.25 in 10.0 mi Calm Calm - N/A   Clear
12:55 AM 39.4 °F - 39.4 °F 100% 30.25 in 10.0 mi Calm Calm - N/A   Clear
1:15 AM 39.7 °F 36.5 °F 39.7 °F 100% 30.25 in 4.0 mi West 4.6 mph - N/A   Clear
1:35 AM 38.3 °F - 38.1 °F 99% 30.25 in 1.0 mi Calm Calm - N/A   Mist
1:55 AM 38.3 °F - 38.3 °F 100% 30.25 in 10.0 mi Calm Calm - N/A   Clear
2:15 AM 40.1 °F - 40.1 °F 100% 30.25 in 10.0 mi Calm Calm - N/A   Clear
2:35 AM 39.4 °F - 39.4 °F 100% 30.25 in 10.0 mi Calm Calm - N/A   Clear
2:55 AM 37.0 °F - 37.0 °F 100% 30.25 in 7.0 mi Calm Calm - N/A   Clear
3:15 AM 38.5 °F - 38.5 °F 100% 30.25 in 10.0 mi Calm Calm - N/A   Clear
3:35 AM 38.1 °F - 38.1 °F 100% 30.25 in 1.8 mi Calm Calm - N/A   Mist
3:55 AM 36.9 °F - 36.9 °F 100% 30.26 in 7.0 mi Calm Calm - N/A   Clear
4:15 AM 35.2 °F - 35.2 °F 100% 30.26 in 10.0 mi Calm Calm - N/A   Clear
4:35 AM 36.9 °F - 36.9 °F 100% 30.26 in 10.0 mi Calm Calm - N/A   Clear
4:55 AM 36.0 °F - 36.0 °F 100% 30.26 in 10.0 mi Calm Calm - N/A   Clear
5:15 AM 35.6 °F - 35.6 °F 100% 30.27 in 10.0 mi Calm Calm - N/A   Clear
5:35 AM 34.5 °F - 34.5 °F 100% 30.27 in 7.0 mi Calm Calm - N/A   Clear
5:55 AM 35.4 °F - 35.4 °F 100% 30.27 in 10.0 mi Calm Calm - N/A   Clear
6:15 AM 35.2 °F - 35.2 °F 100% 30.27 in 10.0 mi Calm Calm - N/A   Clear
6:35 AM 33.4 °F - 33.4 °F 100% 30.27 in 10.0 mi Calm Calm - N/A   Clear
6:55 AM 34.9 °F - 34.9 °F 100% 30.27 in 10.0 mi Calm Calm - N/A   Clear
7:15 AM 36.0 °F - 36.0 °F 100% 30.27 in 10.0 mi Calm Calm - N/A   Clear
7:35 AM 37.2 °F 34.7 °F 37.2 °F 100% 30.28 in 10.0 mi SW 3.5 mph - N/A   Clear
7:55 AM 41.2 °F - 41.2 °F 100% 30.27 in 10.0 mi Calm Calm - N/A   Clear
8:15 AM 43.3 °F - 42.8 °F 98% 30.27 in 10.0 mi Calm Calm - N/A   Clear
8:35 AM 45.1 °F 43.7 °F 43.7 °F 95% 30.28 in 7.0 mi West 3.5 mph - N/A   Clear
8:55 AM 47.7 °F - 45.3 °F 92% 30.28 in 10.0 mi Calm Calm - N/A   Clear
9:15 AM 50.7 °F - 45.9 °F 83% 30.28 in 10.0 mi WSW 3.5 mph - N/A   Clear
9:35 AM 53.6 °F - 46.2 °F 76% 30.27 in 10.0 mi WSW 3.5 mph - N/A   Clear
9:55 AM 54.7 °F - 46.9 °F 75% 30.28 in 10.0 mi Calm Calm - N/A   Clear
10:15 AM 56.7 °F - 47.8 °F 72% 30.29 in 10.0 mi Calm Calm - N/A   Clear
10:35 AM 57.6 °F - 46.6 °F 67% 30.28 in 10.0 mi Calm Calm - N/A   Clear
10:55 AM 58.8 °F - 45.9 °F 62% 30.28 in 10.0 mi Calm Calm - N/A   Clear
11:15 AM 60.1 °F - 45.1 °F 58% 30.28 in 10.0 mi South 3.5 mph - N/A   Clear
11:35 AM 60.6 °F - 45.9 °F 58% 30.27 in 10.0 mi West 3.5 mph - N/A   Clear
11:55 AM 61.5 °F - 45.9 °F 56% 30.26 in 10.0 mi SSW 4.6 mph - N/A   Clear
12:15 PM 61.9 °F - 44.6 °F 53% 30.25 in 10.0 mi SSE 3.5 mph - N/A   Clear
12:35 PM 62.4 °F - 44.4 °F 52% 30.25 in 10.0 mi Calm Calm - N/A   Clear
12:55 PM 63.1 °F - 44.8 °F 51% 30.24 in 10.0 mi Calm Calm - N/A   Clear
1:15 PM 63.3 °F - 44.6 °F 50% 30.24 in 10.0 mi Calm Calm - N/A   Clear
1:35 PM 64.0 °F - 45.3 °F 51% 30.23 in 10.0 mi WNW 4.6 mph - N/A   Scattered Clouds
1:55 PM 64.8 °F - 45.1 °F 49% 30.22 in 10.0 mi West 3.5 mph - N/A   Scattered Clouds
2:15 PM 65.3 °F - 44.2 °F 46% 30.21 in 10.0 mi Calm Calm - N/A   Mostly Cloudy
2:35 PM 66.7 °F - 48.0 °F 51% 30.20 in 10.0 mi SSE 4.6 mph - N/A   Overcast
2:55 PM 66.2 °F - 46.9 °F 50% 30.19 in 10.0 mi Calm Calm - N/A   Overcast
3:15 PM 66.6 °F - 46.4 °F 48% 30.18 in 10.0 mi WSW 4.6 mph - N/A   Overcast
3:35 PM 66.6 °F - 45.9 °F 47% 30.17 in 10.0 mi South 4.6 mph - N/A   Mostly Cloudy
3:55 PM 64.4 °F - 46.0 °F 51% 30.17 in 10.0 mi Calm Calm - N/A   Scattered Clouds
4:15 PM 66.4 °F - 46.8 °F 49% 30.16 in 10.0 mi Calm Calm - N/A   Scattered Clouds
4:35 PM 66.0 °F - 46.4 °F 49% 30.16 in 10.0 mi South 3.5 mph - N/A   Scattered Clouds
4:55 PM 66.0 °F - 46.0 °F 48% 30.15 in 10.0 mi Calm Calm - N/A   Scattered Clouds
5:15 PM 66.2 °F - 47.1 °F 50% 30.15 in 10.0 mi SSE 3.5 mph - N/A   Scattered Clouds
5:35 PM 65.5 °F - 48.2 °F 54% 30.14 in 10.0 mi Calm Calm - N/A   Scattered Clouds
5:55 PM 65.3 °F - 47.1 °F 52% 30.13 in 10.0 mi Calm Calm - N/A   Clear
6:15 PM 64.2 °F - 48.6 °F 57% 30.12 in 10.0 mi SSE 4.6 mph - N/A   Clear
6:35 PM 62.4 °F - 49.1 °F 62% 30.12 in 10.0 mi South 3.5 mph - N/A   Clear
6:55 PM 61.2 °F - 49.3 °F 65% 30.11 in 10.0 mi SSE 3.5 mph - N/A   Clear
7:15 PM 57.0 °F - 50.2 °F 78% 30.10 in 10.0 mi SE 3.5 mph - N/A   Clear
7:35 PM 53.8 °F - 47.7 °F 80% 30.10 in 10.0 mi SE 3.5 mph - N/A   Clear
7:55 PM 51.8 °F - 48.0 °F 87% 30.10 in 10.0 mi SE 3.5 mph - N/A   Clear
8:15 PM 50.7 °F - 48.4 °F 92% 30.10 in 10.0 mi SSE 3.5 mph - N/A   Clear
8:35 PM 50.0 °F - 47.3 °F 90% 30.09 in 10.0 mi South 4.6 mph - N/A   Clear
8:55 PM 48.2 °F - 46.2 °F 93% 30.09 in 10.0 mi South 3.5 mph - N/A   Clear
9:15 PM 48.7 °F - 46.4 °F 92% 30.09 in 10.0 mi SSW 3.5 mph - N/A   Clear
9:35 PM 48.0 °F - 45.3 °F 90% 30.09 in 10.0 mi SSW 4.6 mph - N/A   Clear
9:55 PM 46.0 °F 43.9 °F 45.0 °F 96% 30.09 in 10.0 mi West 4.6 mph - N/A   Clear
10:15 PM 45.7 °F 44.4 °F 43.9 °F 93% 30.08 in 10.0 mi SW 3.5 mph - N/A   Clear
10:35 PM 44.8 °F 43.3 °F 43.9 °F 97% 30.08 in 10.0 mi SW 3.5 mph - N/A   Clear
10:55 PM 44.2 °F - 43.9 °F 99% 30.08 in 10.0 mi Calm Calm - N/A   Clear
11:15 PM 45.3 °F 44.0 °F 45.0 °F 99% 30.07 in 10.0 mi WSW 3.5 mph - N/A   Clear
11:35 PM 42.8 °F - 42.4 °F 99% 30.07 in 10.0 mi Calm Calm - N/A   Clear
11:55 PM 44.2 °F - 43.7 °F 98% 30.07 in 10.0 mi Calm Calm - N/A   Clear